User: anonymous   Login
Location: Unspecified
(0.0000°N, 0.0000°E)
Time: 22:05:49
(UTC+00:00)
Language:

Relay 1 - Orbit

View from above orbital plane
View from above orbital plane
View from above satellite
View from above satellite

Ground track
Ground track

The orbit data is extracted from the following two-line orbital elements,

1 00503U 62068A   17289.58884738 -.00000021  00000-0  00000+0 0  9991
2 00503  47.5038 155.3485 2840564 340.3230  19.4896  7.78161905559282
Epoch (UTC): 16 October 2017 14:07:56
Eccentricity: 0.2840564
inclination: 47.5038°
perigee height: 1323 km
apogee height: 7434 km
right ascension of ascending node: 155.3485°
argument of perigee: 340.3230°
revolutions per day: 7.78161905
mean anomaly at epoch: 19.4896°
orbit number at epoch: 55928

The dashed part of the orbit path shows where the satellite is in the earth's shadow,  

DLR